Find Starlink 37662

NORAD ID: 69137 Int'l Des: 2026-110 Owner: SPXS Country: US Constellation: starlink operational
LEOCIRCULARRETROGRADE

現在のビュー

3D地球を読み込み中...

About Starlink 37662

Starlink 37662 (NORAD 69137) is a starlink constellation satellite (v2 mini) launched May 20, 2026 by SPXS of US. It operates in LEO, CIRCULAR, RETROGRADE orbit with a mass of 575.00 kg.

次回通過

Passes for default location (London). Set your location on the main map for personalized predictions.

高度履歴

Loading altitude history...

軌道要素

1 69137U 26110P 26235.48443126 .00013481 00000-0 41899-3 0 9997
2 69137 97.2852 70.9563 0002288 108.7022 251.4469 15.33456621 15925
Epoch: Aug 23, 2026 • Age: 21 hours

現在のステータス

高度 467.5 km
遠地点 / 近地点 N/A
速度 7.64 km/s
衛星直下点 23.99°N, 152.48°E
打ち上げ日 May 20, 2026
運用期間 0.2 years
タイプ internet

技術仕様

分類 Payload
質量 575.00 kg
乾燥質量 530.00 kg
総質量 575.00 kg
長さ 0.30 m
直径 4.10 m
スパン 29.00 m
形状 Box + pan
製造者 SPXS
バスタイプ Starlink V2MO
フェーズステータス In Orbit
所有者/国 SPXS/US

Most Searched